TimeEDT,TemperatureF,Dew PointF,Humidity,Sea Level PressureIn,VisibilityMPH,Wind Direction,Wind SpeedMPH,Gust SpeedMPH,PrecipitationIn,Events,Conditions,WindDirDegrees,DateUTC
12:54 AM,75.0,73.0,94,29.91,10.0,SSW,3.5,-,N/A,,Clear,200,2013-09-01 04:54:00
1:54 AM,75.0,73.0,94,29.91,8.0,Calm,Calm,-,N/A,,Clear,0,2013-09-01 05:54:00
2:54 AM,73.9,73.0,97,29.90,7.0,Calm,Calm,-,N/A,,Clear,0,2013-09-01 06:54:00
3:54 AM,73.9,73.0,97,29.89,6.0,South,3.5,-,N/A,,Clear,190,2013-09-01 07:54:00
4:10 AM,75.2,73.4,94,29.89,6.0,SSW,3.5,-,N/A,,Partly Cloudy,210,2013-09-01 08:10:00
4:54 AM,75.0,73.9,96,29.88,5.0,SW,4.6,-,N/A,,Mostly Cloudy,230,2013-09-01 08:54:00
5:54 AM,73.9,73.0,97,29.89,6.0,South,3.5,-,N/A,,Partly Cloudy,190,2013-09-01 09:54:00
6:54 AM,73.9,73.0,97,29.91,4.0,Calm,Calm,-,N/A,,Clear,0,2013-09-01 10:54:00
7:15 AM,73.4,73.4,100,29.92,2.5,Calm,Calm,-,N/A,,Mostly Cloudy,0,2013-09-01 11:15:00
7:34 AM,75.2,73.4,94,29.92,3.0,SSW,4.6,-,N/A,,Overcast,200,2013-09-01 11:34:00
7:54 AM,75.9,73.9,94,29.92,3.0,SW,5.8,-,N/A,,Overcast,230,2013-09-01 11:54:00
8:42 AM,78.8,75.2,89,29.92,3.0,SW,5.8,-,N/A,,Mostly Cloudy,230,2013-09-01 12:42:00
8:54 AM,78.1,75.0,90,29.93,4.0,WSW,8.1,-,N/A,,Overcast,250,2013-09-01 12:54:00
9:35 AM,80.6,75.2,84,29.94,5.0,SW,6.9,-,N/A,,Haze,230,2013-09-01 13:35:00
9:54 AM,81.0,75.9,85,29.94,5.0,SW,4.6,-,N/A,,Haze,230,2013-09-01 13:54:00
10:22 AM,82.4,75.2,79,29.93,5.0,WSW,9.2,-,N/A,,Haze,240,2013-09-01 14:22:00
10:54 AM,84.9,75.9,74,29.93,6.0,WSW,8.1,-,N/A,,Haze,250,2013-09-01 14:54:00
11:54 AM,87.1,75.9,69,29.92,7.0,SSW,8.1,-,N/A,,Scattered Clouds,210,2013-09-01 15:54:00
12:54 PM,88.0,75.0,65,29.90,7.0,Variable,6.9,-,N/A,,Partly Cloudy,0,2013-09-01 16:54:00
1:54 PM,90.0,73.9,59,29.88,8.0,WSW,10.4,-,N/A,,Partly Cloudy,240,2013-09-01 17:54:00
2:54 PM,89.1,73.0,59,29.86,8.0,SSW,10.4,-,N/A,,Mostly Cloudy,210,2013-09-01 18:54:00
3:54 PM,90.0,73.9,59,29.83,9.0,SW,9.2,-,N/A,,Scattered Clouds,220,2013-09-01 19:54:00
4:54 PM,90.0,73.0,57,29.81,9.0,South,10.4,-,N/A,,Scattered Clouds,190,2013-09-01 20:54:00
5:54 PM,89.1,72.0,57,29.81,10.0,SSW,9.2,-,N/A,,Scattered Clouds,210,2013-09-01 21:54:00
6:54 PM,87.1,73.0,63,29.82,9.0,SSW,4.6,-,N/A,,Partly Cloudy,210,2013-09-01 22:54:00
7:54 PM,82.9,73.0,72,29.84,9.0,SSW,4.6,-,N/A,,Clear,210,2013-09-01 23:54:00
8:54 PM,82.0,73.0,74,29.85,10.0,South,3.5,-,N/A,,Scattered Clouds,190,2013-09-02 00:54:00
9:47 PM,80.6,73.4,79,29.89,9.0,NW,11.5,-,N/A,Thunderstorm,Mostly Cloudy,310,2013-09-02 01:47:00
9:54 PM,80.1,69.1,69,29.90,10.0,WNW,17.3,24.2,N/A,Thunderstorm,Mostly Cloudy,290,2013-09-02 01:54:00
10:07 PM,78.8,68.0,69,29.89,9.0,NW,16.1,27.6,N/A,Thunderstorm,Overcast,320,2013-09-02 02:07:00
10:16 PM,73.4,71.6,94,29.91,1.8,NW,10.4,21.9,0.17,Rain-Thunderstorm,Heavy Rain,320,2013-09-02 02:16:00
10:21 PM,73.4,71.6,94,29.90,1.0,NNW,8.1,-,0.27,Rain-Thunderstorm,Heavy Rain,340,2013-09-02 02:21:00
10:29 PM,73.4,71.6,94,29.90,1.0,Calm,Calm,-,0.42,Rain-Thunderstorm,Heavy Thunderstorms and Rain,0,2013-09-02 02:29:00
10:38 PM,73.4,71.6,94,29.88,1.8,Calm,Calm,-,0.45,Rain-Thunderstorm,Light Thunderstorms and Rain,0,2013-09-02 02:38:00
10:40 PM,73.4,71.6,94,29.88,3.0,SE,3.5,-,0.45,Rain-Thunderstorm,Light Thunderstorms and Rain,130,2013-09-02 02:40:00
10:54 PM,73.0,72.0,96,29.89,7.0,South,5.8,-,0.45,Rain-Thunderstorm,Light Rain,170,2013-09-02 02:54:00
11:19 PM,73.4,71.6,94,29.89,8.0,South,4.6,-,0.00,Rain,Light Rain,180,2013-09-02 03:19:00
11:54 PM,73.9,72.0,93,29.89,8.0,Calm,Calm,-,0.00,,Clear,0,2013-09-02 03:54:00